Regional Weather Roundup
Issued by NWS

Home | Current Version | Previous Version | Graphics & Text | Print | Product List | Glossary On
Versions: 1 2 3 4 5 6 7 8 9 10 11 12 13 14 15 16 17 18 19 20 21 22 23 24 25 26 27 28 29 30 31 32 33 34 35 36 37 38 39 40 41 42 43 44 45 46 47 48 49 50
602
ASUS43 KLSX 100210
RWRMO

WEATHER SUMMARY FOR MISSOURI
NATIONAL WEATHER SERVICE SPRINGFIELD MO
800 PM CST FRI DEC 09 2016

NOTE: "FAIR" INDICATES FEW OR NO CLOUDS BELOW 12,000 FEET WITH NO
       SIGNIFICANT WEATHER AND/OR OBSTRUCTIONS TO VISIBILITY.
       CURRENT SKY AND/OR WEATHER CONDITIONS ARE NOT AVAILABLE FOR
       CHILLICOTHE AND FARMINGTON.

MOZ001>031-035>038-043-044-053-054-100300-
...NORTHERN AND WESTERN MISSOURI...

CITY           SKY/WX    TMP DP  RH WIND       PRES   REMARKS
KANSAS CTY INT CLOUDY    27  10  49 S8        30.52S WCI  19
KANSAS C DTWN  CLOUDY    28  11  48 SE5       30.53F WCI  23
LEE`S SUMMIT   CLOUDY    26  11  52 SE7       30.52F WCI  18
ST JOSEPH      CLOUDY    26  10  50 SE6       30.54R WCI  19
CHILLICOTHE      N/A     25   7  46 SE3       30.56F
KIRKSVILLE     CLOUDY    24  13  62 CALM      30.55F

$$
MOZ066>068-077>081-088>096-101>105-100300-
...SOUTHWEST MISSOURI...

CITY           SKY/WX    TMP DP  RH WIND       PRES   REMARKS
SPRINGFIELD    CLOUDY    31  13  47 CALM      30.51S
JOPLIN         CLOUDY    32  16  51 E3        30.53R
BRANSON        CLOUDY    28  16  59 E5        30.52R WCI  23

$$
MOZ032>034-039>042-045>050-055>058-069>072-100300-
...CENTRAL MISSOURI...

CITY           SKY/WX    TMP DP  RH WIND       PRES   REMARKS
COLUMBIA       CLOUDY    25  13  60 CALM      30.56S
JEFFERSON CITY CLOUDY    26  10  50 CALM      30.58S
ROLLA          PTCLDY    20   9  62 CALM      30.53S
SEDALIA        CLOUDY    26  11  52 E3        30.56F
WHITEMAN AFB   CLOUDY    26  11  55 E5        30.53F WCI  20
WARRENSBURG    CLOUDY    28  12  50 SE5       30.54F WCI  23
OSAGE BEACH    CLOUDY    25  11  55 CALM      30.57S

$$
MOZ051-052-059>065-100300-
...EAST CENTRAL MISSOURI...

CITY           SKY/WX    TMP DP  RH WIND       PRES   REMARKS
ST LOUIS INTL  PTCLDY    24  13  62 NW5       30.58R WCI  18
SPIRIT OF STL  CLEAR     18  14  84 CALM      30.59R
ST CHARLES     MOCLDY    22  17  81 CALM      30.58S

$$
MOZ072>076-082>087-097>100-106>115-100300-
...SOUTH CENTRAL AND SOUTHEAST MISSOURI...

CITY           SKY/WX    TMP DP  RH WIND       PRES   REMARKS
CAPE GIRARDEAU CLEAR     26  20  77 CALM      30.59R
FARMINGTON     CLEAR     22  14  71 CALM      30.56R
POPLAR BLUFF   CLEAR     24  20  84 CALM      30.59R
WEST PLAINS    CLOUDY    26  16  65 CALM      30.54R

$$




USA.gov is the U.S. government's official web portal to all federal, state and local government web resources and services.